Year,Month,Day,Hour,Minute,Value (Times are PST for windspeed in km/hr)
2010,07,10,00,00,12.10
2010,07,10,00,01,16.80
2010,07,10,00,02,16.00
2010,07,10,00,03,14.50
2010,07,10,00,04,20.20
2010,07,10,00,05,15.80
2010,07,10,00,06,19.60
2010,07,10,00,07,14.00
2010,07,10,00,08,14.80
2010,07,10,00,09,14.70
2010,07,10,00,10,12.20
2010,07,10,00,11,18.50
2010,07,10,00,12,18.00
2010,07,10,00,13,11.70
2010,07,10,00,14,12.20
2010,07,10,00,15,15.80
2010,07,10,00,16,17.00
2010,07,10,00,17,15.80
2010,07,10,00,18,15.00
2010,07,10,00,19,16.30
2010,07,10,00,20,14.80
2010,07,10,00,21,17.70
2010,07,10,00,22,17.50
2010,07,10,00,23,17.30
2010,07,10,00,24,16.80
2010,07,10,00,25,16.30
2010,07,10,00,26,16.00
2010,07,10,00,27,19.10
2010,07,10,00,28,16.30
2010,07,10,00,29,18.50
2010,07,10,00,30,14.00
2010,07,10,00,31,12.70
2010,07,10,00,32,16.00
2010,07,10,00,33,15.20
2010,07,10,00,34,14.80
2010,07,10,00,35,12.70
2010,07,10,00,36,13.00
2010,07,10,00,37,18.20
2010,07,10,00,38,14.30
2010,07,10,00,39,9.20
2010,07,10,00,40,12.20
2010,07,10,00,41,16.10
2010,07,10,00,42,14.30
2010,07,10,00,43,11.80
2010,07,10,00,44,14.50
2010,07,10,00,45,10.30
2010,07,10,00,46,9.80
2010,07,10,00,47,11.20
2010,07,10,00,48,12.60
2010,07,10,00,49,13.00
2010,07,10,00,50,13.30
2010,07,10,00,51,10.80
2010,07,10,00,52,13.60
2010,07,10,00,53,16.90
2010,07,10,00,54,12.30
2010,07,10,00,55,14.20
2010,07,10,00,56,14.30
2010,07,10,00,57,10.70
2010,07,10,00,58,17.10
2010,07,10,00,59,15.30
2010,07,10,01,00,16.60
2010,07,10,01,01,16.30
2010,07,10,01,02,14.60
2010,07,10,01,03,14.70
2010,07,10,01,04,17.50
2010,07,10,01,05,17.50
2010,07,10,01,06,16.10
2010,07,10,01,07,17.40
2010,07,10,01,08,15.80
2010,07,10,01,09,20.70
2010,07,10,01,10,16.00
2010,07,10,01,11,19.60
2010,07,10,01,12,16.70
2010,07,10,01,13,21.70
2010,07,10,01,14,17.50
2010,07,10,01,15,15.80
2010,07,10,01,16,17.50
2010,07,10,01,17,15.20
2010,07,10,01,18,16.20
2010,07,10,01,19,17.40
2010,07,10,01,20,20.50
2010,07,10,01,21,18.10
2010,07,10,01,22,17.00
2010,07,10,01,23,18.30
2010,07,10,01,24,9.70
2010,07,10,01,25,11.20
2010,07,10,01,26,14.40
2010,07,10,01,27,14.50
2010,07,10,01,28,12.80
2010,07,10,01,29,15.80
2010,07,10,01,30,19.10
2010,07,10,01,31,17.00
2010,07,10,01,32,19.10
2010,07,10,01,33,18.60
2010,07,10,01,34,12.10
2010,07,10,01,35,22.20
2010,07,10,01,36,19.50
2010,07,10,01,37,20.00
2010,07,10,01,38,17.00
2010,07,10,01,39,15.60
2010,07,10,01,40,19.70
2010,07,10,01,41,19.10
2010,07,10,01,42,16.40
2010,07,10,01,43,17.10
2010,07,10,01,44,14.70
2010,07,10,01,45,18.30
2010,07,10,01,46,17.70
2010,07,10,01,47,20.70
2010,07,10,01,48,21.20
2010,07,10,01,49,12.90
2010,07,10,01,50,19.30
2010,07,10,01,51,22.20
2010,07,10,01,52,19.80
2010,07,10,01,53,15.70
2010,07,10,01,54,17.50
2010,07,10,01,55,16.90
2010,07,10,01,56,15.90
2010,07,10,01,57,19.80
2010,07,10,01,58,19.30
2010,07,10,01,59,11.80
2010,07,10,02,00,17.70
2010,07,10,02,01,15.90
2010,07,10,02,02,12.10
2010,07,10,02,03,16.30
2010,07,10,02,04,23.30
2010,07,10,02,05,15.80
2010,07,10,02,06,17.40
2010,07,10,02,07,19.50
2010,07,10,02,08,18.90
2010,07,10,02,09,18.20
2010,07,10,02,10,17.40
2010,07,10,02,11,15.10
2010,07,10,02,12,20.00
2010,07,10,02,13,16.20
2010,07,10,02,14,14.90
2010,07,10,02,15,9.30
2010,07,10,02,16,14.10
2010,07,10,02,17,18.00
2010,07,10,02,18,15.40
2010,07,10,02,19,11.50
2010,07,10,02,20,10.60
2010,07,10,02,21,14.80
2010,07,10,02,22,10.60
2010,07,10,02,23,17.30
2010,07,10,02,24,16.50
2010,07,10,02,25,14.30
2010,07,10,02,26,12.80
2010,07,10,02,27,16.30
2010,07,10,02,28,13.60
2010,07,10,02,29,17.10
2010,07,10,02,30,14.60
2010,07,10,02,31,10.10
2010,07,10,02,32,20.20
2010,07,10,02,33,20.10
2010,07,10,02,34,17.00
2010,07,10,02,35,13.50
2010,07,10,02,36,16.50
2010,07,10,02,37,16.20
2010,07,10,02,38,14.50
2010,07,10,02,39,14.80
2010,07,10,02,40,16.60
2010,07,10,02,41,19.20
2010,07,10,02,42,19.20
2010,07,10,02,43,19.60
2010,07,10,02,44,16.90
2010,07,10,02,45,14.70
2010,07,10,02,46,11.40
2010,07,10,02,47,11.50
2010,07,10,02,48,11.90
2010,07,10,02,49,15.50
2010,07,10,02,50,17.90
2010,07,10,02,51,12.70
2010,07,10,02,52,16.60
2010,07,10,02,53,10.40
2010,07,10,02,54,10.20
2010,07,10,02,55,12.20
2010,07,10,02,56,15.30
2010,07,10,02,57,11.10
2010,07,10,02,58,10.50
2010,07,10,02,59,9.30
2010,07,10,03,00,10.20
2010,07,10,03,01,9.20
2010,07,10,03,02,10.80
2010,07,10,03,03,7.70
2010,07,10,03,04,14.20
2010,07,10,03,05,10.70
2010,07,10,03,06,15.00
2010,07,10,03,07,8.40
2010,07,10,03,08,8.20
2010,07,10,03,09,7.50
2010,07,10,03,10,9.70
2010,07,10,03,11,14.30
2010,07,10,03,12,10.50
2010,07,10,03,13,13.40
2010,07,10,03,14,13.70
2010,07,10,03,15,15.60
2010,07,10,03,16,11.90
2010,07,10,03,17,11.70
2010,07,10,03,18,12.00
2010,07,10,03,19,15.90
2010,07,10,03,20,12.10
2010,07,10,03,21,13.30
2010,07,10,03,22,12.90
2010,07,10,03,23,12.00
2010,07,10,03,24,15.40
2010,07,10,03,25,13.20
2010,07,10,03,26,9.70
2010,07,10,03,27,11.60
2010,07,10,03,28,17.70
2010,07,10,03,29,21.30
2010,07,10,03,30,18.10
2010,07,10,03,31,15.20
2010,07,10,03,32,18.20
2010,07,10,03,33,19.70
2010,07,10,03,34,16.80
2010,07,10,03,35,20.70
2010,07,10,03,36,20.40
2010,07,10,03,37,19.10
2010,07,10,03,38,23.20
2010,07,10,03,39,20.20
2010,07,10,03,40,19.60
2010,07,10,03,41,24.10
2010,07,10,03,42,16.00
2010,07,10,03,43,16.60
2010,07,10,03,44,16.80
2010,07,10,03,45,19.80
2010,07,10,03,46,15.90
2010,07,10,03,47,14.30
2010,07,10,03,48,13.40
2010,07,10,03,49,14.60
2010,07,10,03,50,11.40
2010,07,10,03,51,9.30
2010,07,10,03,52,11.50
2010,07,10,03,53,9.80
2010,07,10,03,54,10.70
2010,07,10,03,55,10.80
2010,07,10,03,56,9.50
2010,07,10,03,57,13.70
2010,07,10,03,58,12.90
2010,07,10,03,59,13.00
2010,07,10,04,00,13.70
2010,07,10,04,01,9.20
2010,07,10,04,02,11.10
2010,07,10,04,03,10.90
2010,07,10,04,04,8.10
2010,07,10,04,05,15.80
2010,07,10,04,06,9.90
2010,07,10,04,07,9.10
2010,07,10,04,08,11.20
2010,07,10,04,09,9.00
2010,07,10,04,10,15.20
2010,07,10,04,11,6.80
2010,07,10,04,12,8.20
2010,07,10,04,13,9.00
2010,07,10,04,14,11.40
2010,07,10,04,15,16.30
2010,07,10,04,16,16.40
2010,07,10,04,17,13.00
2010,07,10,04,18,12.10
2010,07,10,04,19,11.90
2010,07,10,04,20,14.70
2010,07,10,04,21,13.40
2010,07,10,04,22,12.90
2010,07,10,04,23,16.60
2010,07,10,04,24,15.80
2010,07,10,04,25,14.00
2010,07,10,04,26,15.40
2010,07,10,04,27,15.70
2010,07,10,04,28,15.20
2010,07,10,04,29,12.50
2010,07,10,04,30,14.30
2010,07,10,04,31,11.40
2010,07,10,04,32,12.10
2010,07,10,04,33,16.80
2010,07,10,04,34,16.20
2010,07,10,04,35,14.10
2010,07,10,04,36,15.70
2010,07,10,04,37,12.80
2010,07,10,04,38,14.80
2010,07,10,04,39,14.50
2010,07,10,04,40,13.50
2010,07,10,04,41,19.80
2010,07,10,04,42,15.20
2010,07,10,04,43,15.80
2010,07,10,04,44,10.90
2010,07,10,04,45,9.70
2010,07,10,04,46,16.00
2010,07,10,04,47,16.10
2010,07,10,04,48,16.10
2010,07,10,04,49,16.10
2010,07,10,04,50,13.00
2010,07,10,04,51,11.80
2010,07,10,04,52,9.30
2010,07,10,04,53,7.70
2010,07,10,04,54,8.30
2010,07,10,04,55,9.70
2010,07,10,04,56,10.80
2010,07,10,04,57,16.50
2010,07,10,04,58,14.30
2010,07,10,04,59,14.70
2010,07,10,05,00,16.40
2010,07,10,05,01,16.70
2010,07,10,05,02,13.40
2010,07,10,05,03,17.00
2010,07,10,05,04,15.30
2010,07,10,05,05,10.30
2010,07,10,05,06,14.20
2010,07,10,05,07,17.20
2010,07,10,05,08,14.30
2010,07,10,05,09,15.90
2010,07,10,05,10,12.90
2010,07,10,05,11,15.70
2010,07,10,05,12,11.50
2010,07,10,05,13,11.00
2010,07,10,05,14,14.50
2010,07,10,05,15,12.40
2010,07,10,05,16,15.80
2010,07,10,05,17,15.00
2010,07,10,05,18,16.50
2010,07,10,05,19,16.30
2010,07,10,05,20,15.60
2010,07,10,05,21,14.80
2010,07,10,05,22,14.70
2010,07,10,05,23,16.50
2010,07,10,05,24,17.90
2010,07,10,05,25,16.00
2010,07,10,05,26,16.30
2010,07,10,05,27,16.40
2010,07,10,05,28,16.70
2010,07,10,05,29,15.30
2010,07,10,05,30,12.50
2010,07,10,05,31,14.10
2010,07,10,05,32,15.40
2010,07,10,05,33,14.60
2010,07,10,05,34,14.40
2010,07,10,05,35,12.30
2010,07,10,05,36,20.20
2010,07,10,05,37,14.80
2010,07,10,05,38,15.90
2010,07,10,05,39,15.10
2010,07,10,05,40,13.80
2010,07,10,05,41,17.90
2010,07,10,05,42,14.20
2010,07,10,05,43,16.70
2010,07,10,05,44,13.30
2010,07,10,05,45,15.10
2010,07,10,05,46,18.20
2010,07,10,05,47,20.00
2010,07,10,05,48,17.70
2010,07,10,05,49,15.20
2010,07,10,05,50,18.10
2010,07,10,05,51,16.30
2010,07,10,05,52,19.00
2010,07,10,05,53,18.80
2010,07,10,05,54,18.10
2010,07,10,05,55,17.40
2010,07,10,05,56,15.70
2010,07,10,05,57,13.90
2010,07,10,05,58,21.10
2010,07,10,05,59,16.70
2010,07,10,06,00,12.70
2010,07,10,06,01,17.50
2010,07,10,06,02,10.20
2010,07,10,06,03,10.30
2010,07,10,06,04,13.90
2010,07,10,06,05,13.00
2010,07,10,06,06,17.10
2010,07,10,06,07,17.50
2010,07,10,06,08,17.20
2010,07,10,06,09,14.80
2010,07,10,06,10,13.70
2010,07,10,06,11,11.40
2010,07,10,06,12,11.10
2010,07,10,06,13,14.20
2010,07,10,06,14,12.20
2010,07,10,06,15,15.80
2010,07,10,06,16,18.00
2010,07,10,06,17,15.40
2010,07,10,06,18,11.10
2010,07,10,06,19,19.10
2010,07,10,06,20,19.60
2010,07,10,06,21,14.80
2010,07,10,06,22,15.70
2010,07,10,06,23,14.50
2010,07,10,06,24,12.50
2010,07,10,06,25,17.40
2010,07,10,06,26,15.00
2010,07,10,06,27,18.00
2010,07,10,06,28,16.70
2010,07,10,06,29,16.40
2010,07,10,06,30,14.40
2010,07,10,06,31,17.60
2010,07,10,06,32,13.10
2010,07,10,06,33,20.90
2010,07,10,06,34,18.60
2010,07,10,06,35,16.70
2010,07,10,06,36,17.00
2010,07,10,06,37,15.90
2010,07,10,06,38,16.50
2010,07,10,06,39,19.10
2010,07,10,06,40,15.50
2010,07,10,06,41,18.30
2010,07,10,06,42,14.30
2010,07,10,06,43,22.30
2010,07,10,06,44,21.30
2010,07,10,06,45,15.00
2010,07,10,06,46,15.10
2010,07,10,06,47,11.10
2010,07,10,06,48,17.60
2010,07,10,06,49,14.20
2010,07,10,06,50,15.10
2010,07,10,06,51,16.80
2010,07,10,06,52,12.90
2010,07,10,06,53,12.80
2010,07,10,06,54,16.10
2010,07,10,06,55,13.30
2010,07,10,06,56,18.20
2010,07,10,06,57,20.00
2010,07,10,06,58,17.30
2010,07,10,06,59,17.50
2010,07,10,07,00,18.60
2010,07,10,07,01,12.80
2010,07,10,07,02,19.10
2010,07,10,07,03,15.90
2010,07,10,07,04,18.00
2010,07,10,07,05,19.90
2010,07,10,07,06,20.40
2010,07,10,07,07,18.20
2010,07,10,07,08,19.40
2010,07,10,07,09,16.90
2010,07,10,07,10,14.60
2010,07,10,07,11,17.40
2010,07,10,07,12,18.60
2010,07,10,07,13,18.60
2010,07,10,07,14,14.50
2010,07,10,07,15,17.10
2010,07,10,07,16,22.50
2010,07,10,07,17,16.70
2010,07,10,07,18,14.70
2010,07,10,07,19,16.70
2010,07,10,07,20,19.80
2010,07,10,07,21,15.30
2010,07,10,07,22,16.60
2010,07,10,07,23,16.50
2010,07,10,07,24,15.70
2010,07,10,07,25,18.50
2010,07,10,07,26,13.30
2010,07,10,07,27,20.10
2010,07,10,07,28,20.60
2010,07,10,07,29,13.60
2010,07,10,07,30,14.00
2010,07,10,07,31,17.20
2010,07,10,07,32,19.70
2010,07,10,07,33,18.30
2010,07,10,07,34,19.30
2010,07,10,07,35,16.40
2010,07,10,07,36,17.40
2010,07,10,07,37,18.20
2010,07,10,07,38,18.90
2010,07,10,07,39,20.30
2010,07,10,07,40,19.10
2010,07,10,07,41,15.00
2010,07,10,07,42,14.40
2010,07,10,07,43,15.40
2010,07,10,07,44,21.70
2010,07,10,07,45,17.70
2010,07,10,07,46,19.70
2010,07,10,07,47,21.20
2010,07,10,07,48,13.10
2010,07,10,07,49,14.60
2010,07,10,07,50,11.70
2010,07,10,07,51,15.10
2010,07,10,07,52,11.80
2010,07,10,07,53,15.20
2010,07,10,07,54,17.40
2010,07,10,07,55,16.20
2010,07,10,07,56,18.90
2010,07,10,07,57,17.20
2010,07,10,07,58,16.60
2010,07,10,07,59,11.70
2010,07,10,08,00,9.80
2010,07,10,08,01,13.90
2010,07,10,08,02,15.50
2010,07,10,08,03,17.50
2010,07,10,08,04,20.50
2010,07,10,08,05,16.40
2010,07,10,08,06,18.30
2010,07,10,08,07,17.60
2010,07,10,08,08,20.30
2010,07,10,08,09,16.80
2010,07,10,08,10,19.80
2010,07,10,08,11,22.60
2010,07,10,08,12,19.00
2010,07,10,08,13,22.10
2010,07,10,08,14,25.50
2010,07,10,08,15,21.50
2010,07,10,08,16,22.40
2010,07,10,08,17,21.90
2010,07,10,08,18,22.60
2010,07,10,08,19,23.00
2010,07,10,08,20,19.00
2010,07,10,08,21,15.40
2010,07,10,08,22,19.10
2010,07,10,08,23,23.50
2010,07,10,08,24,21.60
2010,07,10,08,25,19.40
2010,07,10,08,26,21.60
2010,07,10,08,27,17.70
2010,07,10,08,28,24.60
2010,07,10,08,29,17.50
2010,07,10,08,30,18.70
2010,07,10,08,31,15.50
2010,07,10,08,32,17.60
2010,07,10,08,33,18.50
2010,07,10,08,34,16.20
2010,07,10,08,35,13.30
2010,07,10,08,36,10.80
2010,07,10,08,37,14.60
2010,07,10,08,38,15.40
2010,07,10,08,39,13.60
2010,07,10,08,40,14.80
2010,07,10,08,41,14.70
2010,07,10,08,42,18.50
2010,07,10,08,43,16.90
2010,07,10,08,44,17.80
2010,07,10,08,45,9.20
2010,07,10,08,46,12.80
2010,07,10,08,47,12.70
2010,07,10,08,48,17.20
2010,07,10,08,49,18.30
2010,07,10,08,50,22.10
2010,07,10,08,51,18.60
2010,07,10,08,52,18.20
2010,07,10,08,53,21.40
2010,07,10,08,54,23.20
2010,07,10,08,55,19.80
2010,07,10,08,56,23.80
2010,07,10,08,57,25.90
2010,07,10,08,58,20.40
2010,07,10,08,59,21.80
2010,07,10,09,00,22.70
2010,07,10,09,01,17.30
2010,07,10,09,02,19.30
2010,07,10,09,03,14.50
2010,07,10,09,04,11.70
2010,07,10,09,05,16.40
2010,07,10,09,06,15.40
2010,07,10,09,07,15.90
2010,07,10,09,08,17.00
2010,07,10,09,09,17.20
2010,07,10,09,10,14.10
2010,07,10,09,11,12.40
2010,07,10,09,12,13.60
2010,07,10,09,13,10.20
2010,07,10,09,14,10.60
2010,07,10,09,15,13.40
2010,07,10,09,16,11.80
2010,07,10,09,17,11.60
2010,07,10,09,18,12.00
2010,07,10,09,19,12.50
2010,07,10,09,20,12.90
2010,07,10,09,21,16.50
2010,07,10,09,22,13.00
2010,07,10,09,23,15.90
2010,07,10,09,24,12.90
2010,07,10,09,25,19.80
2010,07,10,09,26,18.80
2010,07,10,09,27,20.70
2010,07,10,09,28,14.50
2010,07,10,09,29,17.80
2010,07,10,09,30,18.90
2010,07,10,09,31,12.70
2010,07,10,09,32,15.40
2010,07,10,09,33,17.70
2010,07,10,09,34,20.20
2010,07,10,09,35,15.50
2010,07,10,09,36,16.30
2010,07,10,09,37,17.20
2010,07,10,09,38,13.80
2010,07,10,09,39,13.90
2010,07,10,09,40,10.90
2010,07,10,09,41,13.20
2010,07,10,09,42,12.50
2010,07,10,09,43,16.30
2010,07,10,09,44,15.30
2010,07,10,09,45,13.30
2010,07,10,09,46,11.90
2010,07,10,09,47,14.90
2010,07,10,09,48,17.80
2010,07,10,09,49,17.70
2010,07,10,09,50,17.70
2010,07,10,09,51,18.90
2010,07,10,09,52,20.10
2010,07,10,09,53,15.70
2010,07,10,09,54,17.90
2010,07,10,09,55,16.00
2010,07,10,09,56,17.40
2010,07,10,09,57,15.70
2010,07,10,09,58,13.70
2010,07,10,09,59,19.50
2010,07,10,10,00,14.10
2010,07,10,10,01,13.20
2010,07,10,10,02,14.90
2010,07,10,10,03,18.20
2010,07,10,10,04,13.20
2010,07,10,10,05,15.80
2010,07,10,10,06,16.90
2010,07,10,10,07,13.90
2010,07,10,10,08,16.00
2010,07,10,10,09,17.60
2010,07,10,10,10,18.00
2010,07,10,10,11,17.90
2010,07,10,10,12,19.10
2010,07,10,10,13,15.30
2010,07,10,10,14,14.20
2010,07,10,10,15,16.70
2010,07,10,10,16,17.40
2010,07,10,10,17,17.80
2010,07,10,10,18,24.10
2010,07,10,10,19,23.60
2010,07,10,10,20,19.90
2010,07,10,10,21,19.30
2010,07,10,10,22,20.30
2010,07,10,10,23,19.00
2010,07,10,10,24,14.50
2010,07,10,10,25,18.30
2010,07,10,10,26,19.90
2010,07,10,10,27,17.20
2010,07,10,10,28,15.10
2010,07,10,10,29,18.90
2010,07,10,10,30,20.60
2010,07,10,10,31,17.50
2010,07,10,10,32,17.90
2010,07,10,10,33,15.70
2010,07,10,10,34,21.20
2010,07,10,10,35,18.20
2010,07,10,10,36,18.70
2010,07,10,10,37,20.90
2010,07,10,10,38,19.10
2010,07,10,10,39,16.80
2010,07,10,10,40,17.30
2010,07,10,10,41,15.80
2010,07,10,10,42,17.60
2010,07,10,10,43,19.70
2010,07,10,10,44,17.80
2010,07,10,10,45,22.00
2010,07,10,10,46,20.90
2010,07,10,10,47,20.60
2010,07,10,10,48,19.50
2010,07,10,10,49,20.40
2010,07,10,10,50,22.50
2010,07,10,10,51,19.80
2010,07,10,10,52,19.00
2010,07,10,10,53,17.40
2010,07,10,10,54,20.30
2010,07,10,10,55,20.20
2010,07,10,10,56,18.00
2010,07,10,10,57,20.00
2010,07,10,10,58,16.60
2010,07,10,10,59,17.00
2010,07,10,11,00,18.40
2010,07,10,11,01,17.00
2010,07,10,11,02,18.00
2010,07,10,11,03,17.10
2010,07,10,11,04,19.60
2010,07,10,11,05,16.00
2010,07,10,11,06,11.50
2010,07,10,11,07,18.50
2010,07,10,11,08,15.00
2010,07,10,11,09,19.40
2010,07,10,11,10,19.10
2010,07,10,11,11,19.60
2010,07,10,11,12,19.70
2010,07,10,11,13,19.40
2010,07,10,11,14,17.60
2010,07,10,11,15,15.10
2010,07,10,11,16,21.00
2010,07,10,11,17,17.70
2010,07,10,11,18,14.10
2010,07,10,11,19,17.90
2010,07,10,11,20,20.50
2010,07,10,11,21,19.00
2010,07,10,11,22,20.40
2010,07,10,11,23,21.20
2010,07,10,11,24,17.80
2010,07,10,11,25,16.80
2010,07,10,11,26,20.60
2010,07,10,11,27,18.10
2010,07,10,11,28,18.60
2010,07,10,11,29,14.60
2010,07,10,11,30,14.80
2010,07,10,11,31,14.60
2010,07,10,11,32,18.50
2010,07,10,11,33,21.60
2010,07,10,11,34,20.20
2010,07,10,11,35,15.40
2010,07,10,11,36,14.20
2010,07,10,11,37,14.90
2010,07,10,11,38,19.60
2010,07,10,11,39,15.80
2010,07,10,11,40,18.10
2010,07,10,11,41,15.60
2010,07,10,11,42,18.80
2010,07,10,11,43,16.50
2010,07,10,11,44,14.70
2010,07,10,11,45,19.90
2010,07,10,11,46,18.40
2010,07,10,11,47,16.90
2010,07,10,11,48,17.50
2010,07,10,11,49,16.90
2010,07,10,11,50,16.90
2010,07,10,11,51,15.70
2010,07,10,11,52,18.00
2010,07,10,11,53,13.80
2010,07,10,11,54,16.10
2010,07,10,11,55,23.10
2010,07,10,11,56,19.90
2010,07,10,11,57,13.50
2010,07,10,11,58,19.40
2010,07,10,11,59,19.70
2010,07,10,12,00,17.90
2010,07,10,12,01,19.60
2010,07,10,12,02,17.40
2010,07,10,12,03,18.80
2010,07,10,12,04,20.00
2010,07,10,12,05,19.20
2010,07,10,12,06,17.90
2010,07,10,12,07,19.20
2010,07,10,12,08,12.20
2010,07,10,12,09,15.20
2010,07,10,12,10,13.10
2010,07,10,12,11,17.10
2010,07,10,12,12,12.40
2010,07,10,12,13,13.60
2010,07,10,12,14,18.50
2010,07,10,12,15,14.70
2010,07,10,12,16,13.90
2010,07,10,12,17,14.10
2010,07,10,12,18,13.70
2010,07,10,12,19,17.20
2010,07,10,12,20,12.00
2010,07,10,12,21,13.80
2010,07,10,12,22,17.00
2010,07,10,12,23,18.40
2010,07,10,12,24,19.00
2010,07,10,12,25,17.50
2010,07,10,12,26,20.50
2010,07,10,12,27,18.70
2010,07,10,12,28,15.10
2010,07,10,12,29,17.30
2010,07,10,12,30,21.10
2010,07,10,12,31,19.40
2010,07,10,12,32,21.60
2010,07,10,12,33,16.50
2010,07,10,12,34,16.70
2010,07,10,12,35,19.20
2010,07,10,12,36,23.70
2010,07,10,12,37,22.20
2010,07,10,12,38,24.40
2010,07,10,12,39,20.00
2010,07,10,12,40,21.30
2010,07,10,12,41,21.10
2010,07,10,12,42,18.20
2010,07,10,12,43,19.00
2010,07,10,12,44,22.50
2010,07,10,12,45,19.60
2010,07,10,12,46,18.10
2010,07,10,12,47,17.90
2010,07,10,12,48,14.20
2010,07,10,12,49,20.30
2010,07,10,12,50,21.00
2010,07,10,12,51,22.80
2010,07,10,12,52,20.70
2010,07,10,12,53,20.00
2010,07,10,12,54,19.40
2010,07,10,12,55,16.20
2010,07,10,12,56,18.80
2010,07,10,12,57,21.70
2010,07,10,12,58,16.30
2010,07,10,12,59,21.30
2010,07,10,13,00,19.30
2010,07,10,13,01,22.80
2010,07,10,13,02,21.30
2010,07,10,13,03,26.70
2010,07,10,13,04,24.70
2010,07,10,13,05,22.70
2010,07,10,13,06,28.30
2010,07,10,13,07,25.70
2010,07,10,13,08,21.00
2010,07,10,13,09,21.00
2010,07,10,13,10,22.20
2010,07,10,13,11,21.70
2010,07,10,13,12,22.30
2010,07,10,13,13,21.10
2010,07,10,13,14,24.90
2010,07,10,13,15,20.30
2010,07,10,13,16,21.00
2010,07,10,13,17,19.60
2010,07,10,13,18,23.50
2010,07,10,13,19,22.00
2010,07,10,13,20,18.30
2010,07,10,13,21,20.80
2010,07,10,13,22,20.10
2010,07,10,13,23,21.60
2010,07,10,13,24,21.50
2010,07,10,13,25,23.30
2010,07,10,13,26,18.90
2010,07,10,13,27,19.20
2010,07,10,13,28,20.70
2010,07,10,13,29,23.70
2010,07,10,13,30,19.70
2010,07,10,13,31,19.80
2010,07,10,13,32,18.30
2010,07,10,13,33,21.10
2010,07,10,13,34,18.70
2010,07,10,13,35,18.30
2010,07,10,13,36,19.80
2010,07,10,13,37,15.60
2010,07,10,13,38,13.40
2010,07,10,13,39,17.20
2010,07,10,13,40,17.60
2010,07,10,13,41,18.00
2010,07,10,13,42,17.70
2010,07,10,13,43,17.10
2010,07,10,13,44,14.30
2010,07,10,13,45,18.40
2010,07,10,13,46,17.00
2010,07,10,13,47,15.80
2010,07,10,13,48,19.40
2010,07,10,13,49,16.40
2010,07,10,13,50,20.10
2010,07,10,13,51,17.70
2010,07,10,13,52,15.60
2010,07,10,13,53,16.10
2010,07,10,13,54,14.70
2010,07,10,13,55,16.80
2010,07,10,13,56,20.80
2010,07,10,13,57,18.40
2010,07,10,13,58,18.10
2010,07,10,13,59,19.40
2010,07,10,14,00,16.30
2010,07,10,14,01,18.00
2010,07,10,14,02,15.00
2010,07,10,14,03,18.20
2010,07,10,14,04,15.80
2010,07,10,14,05,16.00
2010,07,10,14,06,20.10
2010,07,10,14,07,18.40
2010,07,10,14,08,19.60
2010,07,10,14,09,17.50
2010,07,10,14,10,14.00
2010,07,10,14,11,15.00
2010,07,10,14,12,12.60
2010,07,10,14,13,16.50
2010,07,10,14,14,13.00
2010,07,10,14,15,14.20
2010,07,10,14,16,15.00
2010,07,10,14,17,10.80
2010,07,10,14,18,18.70
2010,07,10,14,19,12.40
2010,07,10,14,20,10.90
2010,07,10,14,21,11.60
2010,07,10,14,22,11.00
2010,07,10,14,23,17.00
2010,07,10,14,24,12.90
2010,07,10,14,25,11.70
2010,07,10,14,26,15.80
2010,07,10,14,27,15.30
2010,07,10,14,28,18.90
2010,07,10,14,29,14.30
2010,07,10,14,30,14.40
2010,07,10,14,31,12.10
2010,07,10,14,32,14.20
2010,07,10,14,33,15.00
2010,07,10,14,34,14.20
2010,07,10,14,35,17.90
2010,07,10,14,36,15.80
2010,07,10,14,37,21.00
2010,07,10,14,38,17.50
2010,07,10,14,39,15.40
2010,07,10,14,40,14.70
2010,07,10,14,41,15.60
2010,07,10,14,42,10.90
2010,07,10,14,43,13.70
2010,07,10,14,44,16.30
2010,07,10,14,45,12.90
2010,07,10,14,46,16.90
2010,07,10,14,47,12.50
2010,07,10,14,48,14.10
2010,07,10,14,49,15.30
2010,07,10,14,50,18.60
2010,07,10,14,51,12.30
2010,07,10,14,52,14.90
2010,07,10,14,53,12.60
2010,07,10,14,54,12.60
2010,07,10,14,55,17.00
2010,07,10,14,56,18.50
2010,07,10,14,57,16.20
2010,07,10,14,58,15.60
2010,07,10,14,59,18.30
2010,07,10,15,00,15.70
2010,07,10,15,01,16.30
2010,07,10,15,02,17.00
2010,07,10,15,03,19.40
2010,07,10,15,04,16.30
2010,07,10,15,05,15.20
2010,07,10,15,06,16.50
2010,07,10,15,07,19.50
2010,07,10,15,08,17.60
2010,07,10,15,09,16.00
2010,07,10,15,10,11.90
2010,07,10,15,11,14.60
2010,07,10,15,12,13.90
2010,07,10,15,13,10.10
2010,07,10,15,14,14.50
2010,07,10,15,15,11.30
2010,07,10,15,16,12.10
2010,07,10,15,17,10.50
2010,07,10,15,18,14.40
2010,07,10,15,19,12.00
2010,07,10,15,20,12.10
2010,07,10,15,21,10.20
2010,07,10,15,22,9.40
2010,07,10,15,23,11.50
2010,07,10,15,24,6.40
2010,07,10,15,25,10.20
2010,07,10,15,26,12.40
2010,07,10,15,27,8.00
2010,07,10,15,28,13.60
2010,07,10,15,29,7.60
2010,07,10,15,30,8.10
2010,07,10,15,31,7.80
2010,07,10,15,32,8.90
2010,07,10,15,33,8.50
2010,07,10,15,34,9.20
2010,07,10,15,35,8.70
2010,07,10,15,36,10.40
2010,07,10,15,37,9.40
2010,07,10,15,38,9.40
2010,07,10,15,39,8.90
2010,07,10,15,40,11.40
2010,07,10,15,41,10.20
2010,07,10,15,42,10.30
2010,07,10,15,43,9.10
2010,07,10,15,44,8.70
2010,07,10,15,45,9.90
2010,07,10,15,46,9.50
2010,07,10,15,47,10.20
2010,07,10,15,48,9.30
2010,07,10,15,49,10.70
2010,07,10,15,50,8.60
2010,07,10,15,51,7.10
2010,07,10,15,52,8.10
2010,07,10,15,53,7.60
2010,07,10,15,54,6.30
2010,07,10,15,55,6.40
2010,07,10,15,56,6.00
2010,07,10,15,57,6.10
2010,07,10,15,58,4.90
2010,07,10,15,59,3.70
2010,07,10,16,00,4.70
2010,07,10,16,01,2.60
2010,07,10,16,02,2.70
2010,07,10,16,03,5.40
2010,07,10,16,04,5.20
2010,07,10,16,05,5.80
2010,07,10,16,06,5.30
2010,07,10,16,07,4.70
2010,07,10,16,08,5.70
2010,07,10,16,09,8.50
2010,07,10,16,10,4.50
2010,07,10,16,11,6.00
2010,07,10,16,12,7.10
2010,07,10,16,13,7.20
2010,07,10,16,14,9.30
2010,07,10,16,15,7.30
2010,07,10,16,16,6.60
2010,07,10,16,17,6.80
2010,07,10,16,18,8.80
2010,07,10,16,19,6.50
2010,07,10,16,20,6.50
2010,07,10,16,21,8.10
2010,07,10,16,22,7.00
2010,07,10,16,23,9.20
2010,07,10,16,24,8.90
2010,07,10,16,25,7.90
2010,07,10,16,26,8.00
2010,07,10,16,27,8.90
2010,07,10,16,28,8.90
2010,07,10,16,29,13.50
2010,07,10,16,30,15.40
2010,07,10,16,31,10.30
2010,07,10,16,32,12.20
2010,07,10,16,33,13.20
2010,07,10,16,34,12.40
2010,07,10,16,35,8.60
2010,07,10,16,36,8.70
2010,07,10,16,37,8.70
2010,07,10,16,38,11.40
2010,07,10,16,39,10.60
2010,07,10,16,40,7.80
2010,07,10,16,41,9.60
2010,07,10,16,42,11.90
2010,07,10,16,43,12.60
2010,07,10,16,44,7.40
2010,07,10,16,45,9.00
2010,07,10,16,46,12.50
2010,07,10,16,47,9.70
2010,07,10,16,48,11.30
2010,07,10,16,49,7.20
2010,07,10,16,50,8.60
2010,07,10,16,51,9.30
2010,07,10,16,52,6.40
2010,07,10,16,53,9.30
2010,07,10,16,54,7.60
2010,07,10,16,55,8.10
2010,07,10,16,56,10.10
2010,07,10,16,57,16.40
2010,07,10,16,58,14.50
2010,07,10,16,59,11.70
2010,07,10,17,00,9.80
2010,07,10,17,01,7.60
2010,07,10,17,02,11.30
2010,07,10,17,03,12.90
2010,07,10,17,04,11.50
2010,07,10,17,05,12.50
2010,07,10,17,06,8.40
2010,07,10,17,07,8.60
2010,07,10,17,08,8.60
2010,07,10,17,09,11.20
2010,07,10,17,10,10.70
2010,07,10,17,11,10.00
2010,07,10,17,12,10.90
2010,07,10,17,13,9.20
2010,07,10,17,14,12.20
2010,07,10,17,15,9.30
2010,07,10,17,16,8.10
2010,07,10,17,17,9.30
2010,07,10,17,18,7.00
2010,07,10,17,19,7.20
2010,07,10,17,20,7.20
2010,07,10,17,21,9.90
2010,07,10,17,22,11.30
2010,07,10,17,23,11.80
2010,07,10,17,24,15.90